"startDT [UTC]","vpos","CH4 [ppm]","stdev(CH4) [ppm]","CO2 [ppm]","stdev(CO2) [ppm]","H2O [ppm]","stdev(H2O)","p_LGR [torr]","T_LGR [C]","mt1_LGR [us]","mt2_LGR [us]","T_ECpre [C]","T_EC1 [C]","T_EC2 [C]","p_inlet [hPa]","p_in [hPa]","p_out [hPa]","T_inlet [C]","RH_inlet [%]","dwpt_inlet [C]","T_vent [C]","RH_vent [%]","dwpt_vent [C]","flow_vent [l min-1]","flow_inlet [l min-1]","dwpt_sample [C]","T_room [C]"
2013-04-29 00:00:00,0.0,1.9263,0.0010,407.43,0.37,314.8,32.2,138.03,31.76,24.66,36.42,0.04,-272.76,-272.76,-42,562,-942,24.3,6.3,-15.0,24.4,6.5,-14.6,5.73,2.34,-22.1,30.0
2013-04-29 00:01:00,0.0,1.9270,0.0009,407.47,0.42,317.0,30.8,138.03,31.76,24.66,36.42,0.04,-272.76,-272.76,-42,562,-942,24.2,6.4,-14.8,24.4,6.6,-14.4,5.73,2.35,-22.1,30.0
2013-04-29 00:02:00,0.0,1.9274,0.0009,407.38,0.38,321.3,31.3,138.03,31.76,24.66,36.41,0.04,-272.76,-272.77,-42,562,-942,24.2,6.5,-14.7,24.4,6.6,-14.4,5.73,2.43,-22.1,29.9
2013-04-29 00:03:00,0.0,1.9271,0.0008,407.27,0.50,312.0,28.4,138.03,31.76,24.66,36.42,0.04,-272.76,-272.76,-42,562,-942,24.2,6.5,-14.6,24.3,6.7,-14.2,5.73,2.42,-22.1,29.9
2013-04-29 00:04:00,0.0,1.9276,0.0009,407.32,0.42,308.0,31.5,138.03,31.76,24.66,36.42,0.04,-272.76,-272.76,-42,562,-942,24.2,6.6,-14.5,24.3,6.8,-14.1,5.73,2.35,-22.1,29.9
2013-04-29 00:05:00,0.0,1.9278,0.0010,407.36,0.48,309.7,28.2,138.03,31.76,24.66,36.41,0.04,-272.76,-272.76,-42,562,-942,24.2,6.6,-14.5,24.3,6.8,-14.1,5.73,2.34,-22.2,29.9
2013-04-29 00:06:00,0.0,1.9275,0.0011,407.28,0.38,309.0,34.8,138.03,31.77,24.66,36.42,0.04,-272.76,-272.76,-42,562,-942,24.2,6.6,-14.4,24.3,6.8,-14.0,5.73,2.42,-22.2,29.9
2013-04-29 00:07:00,0.0,1.9278,0.0011,407.25,0.42,318.7,28.6,138.03,31.77,24.66,36.43,0.04,-272.76,-272.76,-42,562,-942,24.2,6.7,-14.4,24.3,6.9,-14.0,5.73,2.44,-22.2,29.9
2013-04-29 00:08:00,0.0,1.9280,0.0007,407.39,0.36,310.2,30.9,138.03,31.77,24.66,36.42,0.04,-272.76,-272.77,-42,562,-942,24.2,6.7,-14.3,24.3,6.9,-13.9,5.73,2.36,-22.2,29.8
2013-04-29 00:09:00,0.0,1.9281,0.0009,407.46,0.32,310.2,33.3,138.03,31.77,24.66,36.41,0.04,-272.76,-272.77,-42,562,-942,24.2,6.7,-14.3,24.3,6.9,-13.9,5.73,2.33,-22.2,29.8
2013-04-29 00:10:00,0.0,1.9283,0.0009,407.25,0.42,311.3,30.7,138.03,31.77,24.66,36.42,0.04,-272.76,-272.76,-42,562,-942,24.2,6.7,-14.3,24.3,6.9,-14.0,5.73,2.41,-22.2,29.8
2013-04-29 00:11:00,0.0,1.9281,0.0008,407.30,0.43,314.9,28.3,138.03,31.77,24.66,36.42,0.04,-272.76,-272.77,-42,562,-942,24.2,6.7,-14.3,24.3,6.9,-13.9,5.73,2.44,-22.2,29.8
2013-04-29 00:12:00,0.0,1.9283,0.0009,407.24,0.38,306.7,34.8,138.03,31.77,24.66,36.42,0.04,-272.76,-272.76,-42,562,-942,24.2,6.7,-14.4,24.3,6.9,-14.0,5.73,2.38,-22.2,29.8
2013-04-29 00:13:00,0.0,1.9287,0.0009,407.37,0.49,312.0,29.7,138.03,31.77,24.66,36.41,0.04,-272.76,-272.76,-42,562,-942,24.2,6.6,-14.4,24.3,6.8,-14.0,5.73,2.33,-22.2,29.8
2013-04-29 00:14:00,0.0,1.9281,0.0009,407.30,0.41,305.6,33.0,138.03,31.77,24.67,36.42,0.04,-272.76,-272.76,-42,562,-942,24.2,6.6,-14.5,24.3,6.8,-14.1,5.73,2.39,-22.2,29.7
2013-04-29 00:15:00,0.0,1.9280,0.0008,407.22,0.38,313.8,27.7,138.03,31.78,24.66,36.41,0.04,-272.77,-272.76,-42,562,-942,24.2,6.6,-14.4,24.3,6.8,-14.1,5.73,2.44,-22.2,29.7
2013-04-29 00:16:00,0.0,1.9282,0.0009,407.38,0.52,313.6,28.9,138.03,31.78,24.66,36.41,0.04,-272.76,-272.76,-42,562,-942,24.2,6.7,-14.3,24.3,6.8,-14.0,5.73,2.39,-22.3,29.7
2013-04-29 00:17:00,0.0,1.9283,0.0011,407.27,0.44,313.6,34.4,138.03,31.78,24.66,36.42,0.04,-272.76,-272.76,-42,561,-942,24.2,6.7,-14.4,24.2,6.9,-14.0,5.73,2.33,-22.3,29.7
2013-04-29 00:18:00,0.0,1.9284,0.0009,407.17,0.42,299.4,32.3,138.03,31.78,24.66,36.42,0.04,-272.76,-272.76,-42,561,-942,24.2,6.6,-14.4,24.2,6.8,-14.0,5.73,2.37,-22.2,29.7
2013-04-29 00:19:00,0.0,1.9286,0.0009,407.38,0.39,303.1,32.6,138.03,31.78,24.66,36.42,0.04,-272.76,-272.76,-42,561,-942,24.2,6.7,-14.3,24.2,6.8,-14.1,5.73,2.44,-22.3,29.7
2013-04-29 00:20:00,0.0,1.9287,0.0009,407.20,0.40,303.0,27.2,138.03,31.78,24.66,36.42,0.04,-272.76,-272.76,-42,561,-942,24.2,6.6,-14.5,24.2,6.8,-14.2,5.73,2.42,-22.3,29.6
2013-04-29 00:21:00,0.0,1.9283,0.0010,407.41,0.44,303.5,37.2,138.03,31.78,24.66,36.42,0.04,-272.76,-272.76,-42,562,-942,24.2,6.5,-14.7,24.2,6.7,-14.4,5.73,2.34,-22.3,29.7
2013-04-29 00:22:00,0.0,1.9282,0.0009,407.40,0.41,311.9,30.5,138.03,31.78,24.66,36.42,0.04,-272.76,-272.76,-42,561,-942,24.2,6.4,-14.8,24.2,6.5,-14.6,5.73,2.35,-22.3,29.6
2013-04-29 00:23:00,0.0,1.9282,0.0008,407.45,0.43,312.1,31.1,138.03,31.78,24.66,36.42,0.04,-272.76,-272.76,-42,561,-942,24.2,6.3,-15.0,24.2,6.5,-14.7,5.73,2.41,-22.3,29.6
2013-04-29 00:24:00,0.0,1.9284,0.0009,407.50,0.39,305.7,33.3,138.03,31.78,24.66,36.41,0.04,-272.76,-272.76,-42,561,-942,24.2,6.4,-15.0,24.2,6.5,-14.7,5.73,2.44,-22.3,29.6
2013-04-29 00:25:00,0.0,1.9286,0.0008,407.28,0.41,299.8,31.2,138.03,31.78,24.66,36.42,0.04,-272.76,-272.76,-42,561,-942,24.2,6.3,-15.0,24.2,6.5,-14.8,5.73,2.39,-22.3,29.5
2013-04-29 00:26:00,0.0,1.9284,0.0008,407.38,0.41,295.5,31.3,138.03,31.78,24.66,36.42,0.04,-272.76,-272.76,-42,561,-942,24.2,6.3,-15.1,24.2,6.4,-14.9,5.73,2.34,-22.4,29.4
2013-04-29 00:27:00,0.0,1.9284,0.0010,407.28,0.38,300.3,31.4,138.03,31.78,24.66,36.42,0.04,-272.76,-272.76,-42,561,-942,24.2,6.2,-15.2,24.2,6.4,-14.9,5.73,2.37,-22.4,29.5
2013-04-29 00:28:00,0.0,1.9276,0.0009,407.27,0.38,305.9,28.7,138.03,31.78,24.66,36.42,0.04,-272.76,-272.76,-42,561,-942,24.2,6.2,-15.2,24.2,6.4,-14.9,5.73,2.43,-22.4,29.5
2013-04-29 00:29:00,0.0,1.9282,0.0010,407.41,0.44,303.8,36.3,138.03,31.78,24.66,36.42,0.04,-272.76,-272.76,-42,561,-942,24.2,6.2,-15.3,24.2,6.4,-15.0,5.73,2.42,-22.4,29.5
2013-04-29 00:30:00,0.0,1.9284,0.0010,407.44,0.43,303.0,32.1,138.03,31.78,24.66,36.42,0.04,-272.76,-272.76,-42,561,-942,24.2,6.2,-15.3,24.2,6.3,-15.0,5.73,2.36,-22.4,29.5
2013-04-29 00:31:00,0.0,1.9283,0.0009,407.45,0.43,294.9,28.0,138.03,31.78,24.67,36.42,0.04,-272.76,-272.76,-42,561,-942,24.2,6.2,-15.3,24.2,6.3,-15.1,5.73,2.34,-22.4,29.5
2013-04-29 00:32:00,0.0,1.9287,0.0009,407.42,0.38,301.5,32.0,138.03,31.78,24.66,36.41,0.04,-272.76,-272.76,-42,561,-942,24.2,6.1,-15.4,24.2,6.3,-15.2,5.73,2.40,-22.4,29.4
2013-04-29 00:33:00,0.0,1.9288,0.0011,407.37,0.43,296.6,31.3,138.03,31.79,24.66,36.42,0.04,-272.76,-272.76,-42,561,-942,24.2,6.1,-15.5,24.2,6.3,-15.1,5.73,2.44,-22.4,29.5
2013-04-29 00:34:00,0.0,1.9289,0.0010,407.39,0.46,296.2,29.3,138.03,31.79,24.66,36.41,0.04,-272.76,-272.76,-42,561,-942,24.2,6.1,-15.5,24.2,6.2,-15.2,5.73,2.40,-22.4,29.4
2013-04-29 00:35:00,0.0,1.9285,0.0010,407.31,0.42,302.5,36.0,138.03,31.79,24.66,36.42,0.04,-272.76,-272.77,-42,561,-942,24.2,6.0,-15.6,24.2,6.2,-15.2,5.73,2.34,-22.4,29.4
2013-04-29 00:36:00,0.0,1.9281,0.0010,407.26,0.43,292.7,28.6,138.03,31.79,24.66,36.42,0.04,-272.76,-272.76,-42,561,-942,24.2,6.0,-15.6,24.2,6.2,-15.2,5.73,2.36,-22.4,29.4
2013-04-29 00:37:00,0.0,1.9281,0.0010,407.39,0.46,292.3,36.8,138.03,31.79,24.66,36.42,0.04,-272.76,-272.76,-42,561,-942,24.2,6.0,-15.7,24.2,6.2,-15.3,5.73,2.42,-22.4,29.4
2013-04-29 00:38:00,0.0,1.9285,0.0009,407.46,0.43,294.5,30.2,138.03,31.80,24.66,36.42,0.04,-272.76,-272.77,-42,561,-941,24.2,6.0,-15.7,24.2,6.2,-15.2,5.73,2.43,-22.4,29.4
2013-04-29 00:39:00,0.0,1.9286,0.0010,407.57,0.50,298.2,33.2,138.03,31.80,24.66,36.41,0.04,-272.76,-272.76,-42,561,-941,24.2,6.0,-15.6,24.2,6.2,-15.2,5.73,2.37,-22.4,29.4
2013-04-29 00:40:00,0.0,1.9285,0.0008,407.51,0.43,297.7,30.9,138.03,31.80,24.66,36.41,0.04,-272.76,-272.76,-42,560,-942,24.2,6.0,-15.6,24.1,6.2,-15.2,5.73,2.34,-22.4,29.3
2013-04-29 00:41:00,0.0,1.9286,0.0010,407.36,0.46,295.1,34.6,138.03,31.80,24.66,36.42,0.04,-272.76,-272.76,-42,560,-942,24.2,6.0,-15.6,24.2,6.3,-15.2,5.73,2.39,-22.4,29.4
2013-04-29 00:42:00,0.0,1.9288,0.0009,407.10,0.37,297.4,25.9,138.03,31.80,24.66,36.43,0.04,-272.76,-272.77,-42,560,-941,24.2,6.0,-15.7,24.1,6.2,-15.3,5.73,2.44,-22.4,29.4
2013-04-29 00:43:00,0.0,1.9287,0.0009,407.12,0.37,296.8,30.6,138.03,31.80,24.66,36.42,0.04,-272.76,-272.76,-42,560,-941,24.2,5.8,-16.0,24.1,6.1,-15.5,5.73,2.41,-22.5,29.4
2013-04-29 00:44:00,0.0,1.9288,0.0009,406.92,0.40,291.8,30.6,138.03,31.80,24.66,36.43,0.04,-272.76,-272.76,-42,560,-942,24.2,5.9,-15.9,24.1,6.1,-15.6,5.73,2.35,-22.4,29.3
2013-04-29 00:45:00,0.0,1.9292,0.0010,407.03,0.43,292.1,31.5,138.03,31.80,24.66,36.41,0.04,-272.76,-272.76,-42,560,-942,24.2,5.8,-16.1,24.1,6.0,-15.7,5.73,2.35,-22.4,29.3
2013-04-29 00:46:00,0.0,1.9285,0.0009,407.15,0.34,293.6,29.4,138.03,31.80,24.66,36.42,0.04,-272.76,-272.76,-42,560,-942,24.2,5.7,-16.2,24.2,6.0,-15.7,5.73,2.39,-22.5,29.3
2013-04-29 00:47:00,0.0,1.9286,0.0009,407.14,0.44,293.9,35.1,138.03,31.80,24.66,36.41,0.04,-272.76,-272.76,-42,560,-942,24.2,5.7,-16.3,24.2,5.9,-15.8,5.73,2.43,-22.5,29.3
2013-04-29 00:48:00,0.0,1.9285,0.0010,407.15,0.38,301.0,28.2,138.03,31.80,24.66,36.42,0.04,-272.76,-272.76,-42,560,-942,24.2,5.6,-16.5,24.2,5.9,-16.0,5.73,2.42,-22.4,29.3
2013-04-29 00:49:00,0.0,1.9282,0.0008,407.15,0.43,304.2,30.6,138.03,31.80,24.66,36.42,0.04,-272.76,-272.77,-42,560,-942,24.2,5.5,-16.7,24.2,5.8,-16.0,5.73,2.37,-22.5,29.4
2013-04-29 00:50:00,0.0,1.9286,0.0010,407.07,0.41,285.1,31.3,138.03,31.80,24.66,36.42,0.04,-272.76,-272.76,-42,560,-942,24.2,5.5,-16.7,24.2,5.8,-16.2,5.73,2.34,-22.5,29.3
2013-04-29 00:51:00,0.0,1.9285,0.0009,407.18,0.40,300.6,31.8,138.03,31.81,24.66,36.42,0.04,-272.76,-272.76,-42,560,-942,24.2,5.5,-16.6,24.1,5.8,-16.1,5.73,2.38,-22.5,29.3
2013-04-29 00:52:00,0.0,1.9283,0.0010,407.11,0.42,299.1,34.3,138.03,31.81,24.66,36.42,0.04,-272.76,-272.76,-42,560,-942,24.3,5.5,-16.6,24.2,5.8,-16.0,5.73,2.42,-22.5,29.3
2013-04-29 00:53:00,0.0,1.9285,0.0009,407.10,0.44,289.6,30.7,138.03,31.81,24.66,36.42,0.04,-272.76,-272.76,-42,560,-942,24.2,5.5,-16.6,24.2,5.8,-16.1,5.73,2.43,-22.5,29.2
2013-04-29 00:54:00,0.0,1.9286,0.0009,407.18,0.44,293.1,30.8,138.03,31.81,24.66,36.42,0.04,-272.76,-272.76,-42,560,-942,24.2,5.6,-16.6,24.2,5.9,-16.0,5.73,2.39,-22.5,29.3
2013-04-29 00:55:00,0.0,1.9279,0.0010,407.27,0.42,300.9,29.9,138.03,31.81,24.66,36.42,0.04,-272.76,-272.76,-42,560,-942,24.2,5.6,-16.4,24.2,5.9,-15.8,5.73,2.35,-22.5,29.3
2013-04-29 00:56:00,0.0,1.9276,0.0009,407.22,0.39,299.6,34.6,138.03,31.81,24.67,36.42,0.04,-272.76,-272.77,-43,560,-942,24.2,5.6,-16.4,24.2,5.9,-15.9,5.73,2.35,-22.5,29.2
2013-04-29 00:57:00,0.0,1.9275,0.0010,407.15,0.43,289.5,36.4,138.03,31.81,24.66,36.42,0.04,-272.76,-272.76,-43,560,-941,24.2,5.6,-16.4,24.2,5.9,-15.8,5.73,2.40,-22.5,29.2
2013-04-29 00:58:00,0.0,1.9276,0.0010,407.21,0.39,284.0,29.2,138.03,31.81,24.66,36.42,0.04,-272.76,-272.76,-43,560,-941,24.2,5.7,-16.3,24.2,6.0,-15.7,5.73,2.43,-22.5,29.2
2013-04-29 00:59:00,0.0,1.9276,0.0010,407.14,0.45,289.2,31.2,138.03,31.81,24.66,36.42,0.04,-272.76,-272.77,-43,560,-942,24.2,5.8,-16.1,24.2,6.1,-15.5,5.73,2.42,-22.5,29.3
2013-04-29 01:00:00,0.0,1.9270,0.0008,407.15,0.42,292.0,29.8,138.03,31.81,24.66,36.42,0.04,-272.76,-272.76,-43,560,-942,24.2,5.9,-15.9,24.2,6.2,-15.4,5.73,2.37,-22.5,29.3
2013-04-29 01:01:00,0.0,1.9255,0.0010,407.04,0.42,291.1,30.5,138.03,31.81,24.66,36.42,0.04,-272.76,-272.77,-42,560,-941,24.2,6.1,-15.5,24.2,6.3,-15.0,5.73,2.35,-22.5,29.3
2013-04-29 01:02:00,0.0,1.9248,0.0009,407.18,0.48,291.5,29.3,138.03,31.81,24.66,36.42,0.04,-272.76,-272.76,-42,560,-941,24.2,6.3,-15.1,24.2,6.6,-14.6,5.73,2.36,-22.5,29.3
2013-04-29 01:03:00,0.0,1.9247,0.0012,407.37,0.49,288.6,31.5,138.03,31.81,24.66,36.42,0.04,-272.76,-272.76,-43,560,-941,24.2,6.5,-14.7,24.2,6.7,-14.3,5.73,2.41,-22.5,29.2
2013-04-29 01:04:00,0.0,1.9253,0.0016,407.34,0.47,299.5,29.7,138.03,31.81,24.66,36.42,0.04,-272.76,-272.76,-43,560,-942,24.2,6.4,-14.9,24.2,6.7,-14.3,5.73,2.43,-22.5,29.2
2013-04-29 01:05:00,0.0,1.9267,0.0013,407.19,0.39,282.0,30.4,138.03,31.81,24.66,36.42,0.04,-272.76,-272.77,-43,560,-941,24.3,6.1,-15.4,24.2,6.5,-14.8,5.73,2.41,-22.6,29.2
2013-04-29 01:06:00,0.0,1.9283,0.0010,407.18,0.37,288.8,32.7,138.03,31.82,24.66,36.41,0.04,-272.76,-272.76,-43,560,-941,24.2,5.8,-15.9,24.2,6.2,-15.4,5.73,2.38,-22.6,29.2
2013-04-29 01:07:00,0.0,1.9278,0.0007,407.22,0.38,288.6,27.6,138.03,31.82,24.66,36.41,0.04,-272.76,-272.76,-43,560,-941,24.3,5.7,-16.2,24.2,6.0,-15.6,5.73,2.35,-22.6,29.2
2013-04-29 01:08:00,0.0,1.9279,0.0008,407.26,0.36,280.2,27.1,138.03,31.82,24.66,36.41,0.04,-272.76,-272.76,-43,560,-942,24.2,5.7,-16.3,24.2,6.0,-15.6,5.73,2.37,-22.6,29.2
2013-04-29 01:09:00,0.0,1.9280,0.0010,407.09,0.37,287.0,27.5,138.03,31.82,24.66,36.41,0.04,-272.76,-272.76,-43,560,-941,24.3,5.7,-16.3,24.2,6.0,-15.6,5.73,2.40,-22.6,29.3
2013-04-29 01:10:00,0.0,1.9279,0.0011,407.02,0.37,279.9,31.2,138.03,31.82,24.66,36.42,0.04,-272.76,-272.76,-43,560,-941,24.3,5.6,-16.3,24.2,5.9,-15.8,5.73,2.43,-22.6,29.2
2013-04-29 01:11:00,0.0,1.9281,0.0011,407.05,0.38,287.6,29.8,138.03,31.82,24.66,36.41,0.04,-272.76,-272.76,-43,560,-942,24.2,5.6,-16.5,24.2,5.9,-15.9,5.73,2.43,-22.6,29.2
2013-04-29 01:12:00,0.0,1.9280,0.0010,407.02,0.47,279.8,31.1,138.03,31.81,24.66,36.43,0.04,-272.76,-272.76,-43,560,-942,24.3,5.5,-16.6,24.2,5.8,-16.0,5.73,2.40,-22.6,29.2
2013-04-29 01:13:00,0.0,1.9287,0.0009,407.15,0.38,284.7,29.8,138.03,31.81,24.66,36.41,0.04,-272.76,-272.76,-43,560,-941,24.3,5.5,-16.7,24.2,5.8,-16.1,5.73,2.37,-22.6,29.2
2013-04-29 01:14:00,0.0,1.9288,0.0009,407.17,0.46,271.2,29.0,138.03,31.81,24.66,36.42,0.04,-272.76,-272.76,-43,560,-942,24.3,5.5,-16.6,24.2,5.7,-16.2,5.73,2.36,-22.6,29.2
2013-04-29 01:15:00,0.0,1.9284,0.0009,407.10,0.41,286.1,35.1,138.03,31.81,24.67,36.43,0.04,-272.76,-272.76,-43,560,-942,24.3,5.5,-16.7,24.2,5.7,-16.2,5.73,2.37,-22.6,29.2
2013-04-29 01:16:00,0.0,1.9292,0.0010,407.12,0.35,282.2,36.4,138.03,31.81,24.66,36.42,0.04,-272.76,-272.77,-43,560,-941,24.2,5.5,-16.7,24.2,5.8,-16.1,5.73,2.40,-22.6,29.2
2013-04-29 01:17:00,0.0,1.9285,0.0011,407.21,0.43,269.6,24.7,138.03,31.81,24.66,36.42,0.04,-272.76,-272.76,-43,560,-941,24.3,5.6,-16.5,24.2,5.8,-16.0,5.73,2.42,-22.6,29.2
2013-04-29 01:18:00,0.0,1.9286,0.0011,407.17,0.38,285.8,27.9,138.03,31.81,24.66,36.41,0.04,-272.76,-272.76,-43,560,-942,24.3,5.5,-16.5,24.2,5.8,-16.0,5.73,2.43,-22.6,29.2
2013-04-29 01:19:00,0.0,1.9288,0.0011,407.11,0.41,288.8,34.7,138.03,31.82,24.66,36.41,0.04,-272.76,-272.77,-43,560,-942,24.3,5.6,-16.5,24.2,5.8,-16.1,5.73,2.41,-22.6,29.2
2013-04-29 01:20:00,0.0,1.9281,0.0011,407.06,0.41,277.4,27.5,138.03,31.81,24.66,36.42,0.04,-272.76,-272.76,-43,560,-941,24.3,5.6,-16.4,24.2,5.9,-15.9,5.73,2.38,-22.6,29.2
2013-04-29 01:21:00,0.0,1.9286,0.0009,407.03,0.40,285.6,28.0,138.03,31.81,24.66,36.42,0.04,-272.76,-272.76,-43,560,-942,24.3,5.6,-16.4,24.2,5.9,-15.9,5.73,2.36,-22.6,29.2
2013-04-29 01:22:00,0.0,1.9283,0.0007,407.09,0.44,282.8,29.3,138.03,31.82,24.66,36.42,0.04,-272.77,-272.76,-43,560,-942,24.3,5.6,-16.4,24.2,5.9,-15.9,5.73,2.37,-22.6,29.2
2013-04-29 01:23:00,0.0,1.9282,0.0009,406.99,0.46,275.1,30.1,138.03,31.82,24.66,36.42,0.04,-272.76,-272.76,-43,560,-941,24.3,5.6,-16.3,24.2,5.8,-16.0,5.73,2.39,-22.6,29.2
2013-04-29 01:24:00,0.0,1.9277,0.0010,407.13,0.38,274.1,26.6,138.03,31.82,24.66,36.41,0.04,-272.76,-272.76,-43,560,-941,24.3,5.7,-16.2,24.2,5.9,-15.8,5.73,2.41,-22.6,29.2
2013-04-29 01:25:00,0.0,1.9266,0.0010,407.10,0.39,279.0,34.1,138.03,31.82,24.66,36.42,0.04,-272.77,-272.77,-43,560,-942,24.3,5.8,-16.0,24.2,6.0,-15.6,5.73,2.42,-22.6,29.2
2013-04-29 01:26:00,0.0,1.9280,0.0009,407.03,0.38,281.1,25.5,138.03,31.82,24.66,36.42,0.04,-272.76,-272.76,-43,561,-941,24.3,5.7,-16.1,24.2,6.0,-15.7,5.73,2.42,-22.6,29.2
2013-04-29 01:27:00,0.0,1.9277,0.0009,407.03,0.48,280.5,37.4,138.03,31.82,24.66,36.42,0.04,-272.76,-272.76,-43,561,-941,24.3,5.7,-16.1,24.2,6.0,-15.7,5.73,2.40,-22.6,29.2
2013-04-29 01:28:00,0.0,1.9278,0.0010,407.10,0.44,280.7,33.0,138.03,31.82,24.66,36.42,0.04,-272.76,-272.76,-43,561,-942,24.3,5.8,-16.0,24.2,6.0,-15.6,5.73,2.37,-22.6,29.2
2013-04-29 01:29:00,0.0,1.9269,0.0009,406.93,0.38,279.1,29.1,138.03,31.82,24.66,36.42,0.04,-272.76,-272.76,-43,560,-941,24.3,5.9,-15.7,24.3,6.1,-15.4,5.73,2.36,-22.6,29.2
2013-04-29 01:30:00,0.0,1.9271,0.0009,406.99,0.42,277.2,25.9,138.03,31.82,24.66,36.42,0.04,-272.76,-272.76,-43,560,-942,24.3,5.9,-15.7,24.3,6.1,-15.4,5.73,2.37,-22.6,29.2
2013-04-29 01:31:00,0.0,1.9273,0.0010,406.99,0.50,273.1,32.8,138.03,31.81,24.66,36.42,0.04,-272.76,-272.76,-43,561,-942,24.3,5.9,-15.9,24.3,6.1,-15.4,5.73,2.39,-22.6,29.2
2013-04-29 01:32:00,0.0,1.9271,0.0010,407.06,0.41,275.1,30.4,138.03,31.81,24.67,36.42,0.04,-272.76,-272.77,-43,561,-942,24.4,5.8,-15.9,24.3,6.0,-15.6,5.73,2.41,-22.6,29.2
2013-04-29 01:33:00,0.0,1.9267,0.0011,406.94,0.44,278.3,30.5,138.03,31.81,24.66,36.42,0.04,-272.76,-272.76,-43,561,-941,24.3,5.8,-16.0,24.3,6.0,-15.6,5.73,2.43,-22.6,29.2
2013-04-29 01:34:00,0.0,1.9264,0.0009,406.95,0.36,276.6,27.6,138.03,31.81,24.66,36.41,0.04,-272.76,-272.76,-43,561,-942,24.4,5.8,-15.9,24.3,6.0,-15.5,5.73,2.42,-22.6,29.2
2013-04-29 01:35:00,0.0,1.9263,0.0009,406.86,0.39,278.3,28.2,138.03,31.81,24.66,36.41,0.04,-272.76,-272.76,-43,561,-942,24.4,5.8,-15.9,24.3,6.1,-15.5,5.73,2.41,-22.6,29.2
2013-04-29 01:36:00,0.0,1.9261,0.0009,406.89,0.39,274.3,32.0,138.03,31.80,24.66,36.41,0.04,-272.77,-272.76,-43,561,-941,24.4,5.9,-15.8,24.3,6.1,-15.5,5.73,2.40,-22.6,29.2
2013-04-29 01:37:00,0.0,1.9266,0.0009,406.98,0.38,279.6,31.2,138.03,31.80,24.66,36.41,0.04,-272.76,-272.76,-43,561,-942,24.4,5.9,-15.8,24.3,6.1,-15.4,5.73,2.38,-22.6,29.2
2013-04-29 01:38:00,0.0,1.9263,0.0010,406.74,0.36,274.4,30.3,138.03,31.80,24.67,36.42,0.04,-272.76,-272.76,-43,561,-942,24.4,5.9,-15.7,24.3,6.1,-15.4,5.73,2.38,-22.6,29.2
2013-04-29 01:39:00,0.0,1.9266,0.0009,406.99,0.35,281.3,31.6,138.03,31.80,24.66,36.41,0.04,-272.77,-272.76,-43,561,-941,24.4,5.9,-15.8,24.3,6.1,-15.4,5.73,2.38,-22.6,29.2
2013-04-29 01:40:00,0.0,1.9269,0.0008,406.91,0.38,275.5,29.1,138.03,31.80,24.66,36.42,0.04,-272.76,-272.76,-43,561,-941,24.4,5.9,-15.8,24.3,6.0,-15.5,5.73,2.38,-22.6,29.2
2013-04-29 01:41:00,0.0,1.9268,0.0010,406.94,0.42,280.3,31.9,138.03,31.80,24.66,36.42,0.04,-272.76,-272.76,-43,561,-942,24.4,5.9,-15.8,24.3,6.1,-15.5,5.73,2.39,-22.6,29.2
2013-04-29 01:42:00,0.0,1.9267,0.0009,406.99,0.38,281.0,32.9,138.03,31.80,24.66,36.42,0.04,-272.76,-272.76,-43,561,-942,24.4,5.9,-15.8,24.4,6.1,-15.4,5.73,2.41,-22.6,29.3
2013-04-29 01:43:00,0.0,1.9265,0.0009,406.91,0.40,282.3,35.1,138.03,31.80,24.66,36.42,0.04,-272.76,-272.77,-43,561,-941,24.4,5.9,-15.8,24.4,6.1,-15.4,5.73,2.42,-22.6,29.3
2013-04-29 01:44:00,0.0,1.9263,0.0010,406.87,0.40,282.3,27.8,138.04,31.79,24.66,36.42,0.04,-272.76,-272.76,-43,561,-942,24.4,5.9,-15.7,24.4,6.1,-15.4,5.73,2.42,-22.6,29.3
2013-04-29 01:45:00,0.0,1.9266,0.0010,407.03,0.35,279.8,31.6,138.04,31.79,24.66,36.41,0.04,-272.76,-272.76,-43,561,-942,24.4,5.8,-15.8,24.4,6.0,-15.4,5.73,2.42,-22.6,29.3
2013-04-29 01:46:00,0.0,1.9265,0.0009,406.84,0.51,281.2,31.6,138.04,31.79,24.66,36.42,0.04,-272.76,-272.77,-43,561,-941,24.5,5.8,-15.8,24.4,6.0,-15.4,5.73,2.41,-22.6,29.3
2013-04-29 01:47:00,0.0,1.9266,0.0009,407.00,0.40,273.3,31.5,138.04,31.79,24.66,36.41,0.04,-272.76,-272.76,-43,562,-942,24.5,5.8,-15.8,24.4,6.1,-15.4,5.73,2.41,-22.6,29.3
2013-04-29 01:48:00,0.0,1.9264,0.0011,406.84,0.38,273.4,29.0,138.04,31.78,24.66,36.42,0.04,-272.76,-272.76,-44,561,-942,24.5,5.9,-15.7,24.4,6.1,-15.4,5.73,2.39,-22.6,29.3
2013-04-29 01:49:00,0.0,1.9261,0.0010,406.90,0.35,271.9,26.1,138.04,31.78,24.66,36.42,0.04,-272.76,-272.77,-44,562,-941,24.5,5.9,-15.6,24.4,6.1,-15.3,5.73,2.39,-22.6,29.3
2013-04-29 01:50:00,0.0,1.9262,0.0010,406.78,0.40,270.0,30.0,138.04,31.78,24.66,36.42,0.04,-272.76,-272.77,-44,562,-942,24.5,5.9,-15.6,24.4,6.1,-15.2,5.73,2.38,-22.6,29.3
2013-04-29 01:51:00,0.0,1.9258,0.0009,406.88,0.41,278.9,30.7,138.04,31.78,24.66,36.42,0.04,-272.76,-272.76,-44,562,-942,24.5,6.0,-15.5,24.5,6.2,-15.1,5.73,2.38,-22.6,29.3
2013-04-29 01:52:00,0.0,1.9267,0.0010,406.94,0.40,270.2,29.1,138.04,31.78,24.66,36.41,0.04,-272.76,-272.77,-44,562,-941,24.5,6.0,-15.5,24.4,6.2,-15.1,5.73,2.39,-22.6,29.3
2013-04-29 01:53:00,0.0,1.9257,0.0010,406.92,0.36,273.8,27.2,138.04,31.78,24.66,36.41,0.04,-272.76,-272.76,-44,562,-942,24.6,6.0,-15.5,24.4,6.2,-15.2,5.73,2.39,-22.6,29.3
2013-04-29 01:54:00,0.0,1.9261,0.0010,406.84,0.42,269.4,28.7,138.04,31.78,24.66,36.42,0.04,-272.76,-272.76,-44,562,-942,24.6,6.0,-15.5,24.5,6.2,-15.1,5.73,2.40,-22.6,29.2
2013-04-29 01:55:00,0.0,1.9259,0.0009,406.89,0.40,263.2,29.2,138.04,31.77,24.66,36.41,0.04,-272.76,-272.76,-44,562,-941,24.6,6.1,-15.3,24.5,6.3,-14.9,5.73,2.40,-22.6,29.3
2013-04-29 01:56:00,0.0,1.9253,0.0010,406.91,0.40,270.8,28.1,138.04,31.76,24.66,36.41,0.04,-272.76,-272.77,-44,562,-942,24.6,6.0,-15.4,24.5,6.2,-15.0,5.73,2.41,-22.6,29.3
2013-04-29 01:57:00,0.0,1.9252,0.0008,406.88,0.40,267.7,29.2,138.04,31.76,24.66,36.41,0.04,-272.76,-272.76,-44,562,-942,24.6,6.0,-15.4,24.5,6.2,-15.1,5.73,2.41,-22.6,29.3
2013-04-29 01:58:00,0.0,1.9254,0.0009,406.89,0.41,271.0,33.6,138.04,31.75,24.66,36.42,0.04,-272.76,-272.76,-44,562,-942,24.6,6.0,-15.4,24.5,6.2,-15.0,5.73,2.42,-22.6,29.3
2013-04-29 01:59:00,0.0,1.9249,0.0008,406.97,0.42,269.0,27.8,138.04,31.74,24.67,36.41,0.04,-272.76,-272.77,-44,562,-942,24.6,6.0,-15.4,24.5,6.2,-15.1,5.73,2.42,-22.6,29.3
2013-04-29 02:00:00,0.0,1.9250,0.0009,406.85,0.40,267.4,28.7,138.04,31.74,24.66,36.42,0.04,-272.76,-272.76,-44,562,-942,24.6,6.0,-15.3,24.5,6.2,-14.9,5.73,2.42,-22.6,29.3
2013-04-29 02:01:00,0.0,1.9251,0.0010,406.86,0.46,274.1,28.2,138.04,31.73,24.66,36.41,0.04,-272.76,-272.76,-44,562,-942,24.6,6.1,-15.1,24.5,6.3,-14.8,5.73,2.41,-22.5,29.3
2013-04-29 02:02:00,0.0,1.9247,0.0007,406.97,0.43,277.2,31.4,138.04,31.73,24.66,36.40,0.04,-272.76,-272.76,-44,562,-942,24.6,6.2,-14.9,24.5,6.4,-14.6,5.73,2.41,-22.5,29.3
2013-04-29 02:03:00,0.0,1.9247,0.0009,406.92,0.46,267.2,29.7,138.04,31.73,24.66,36.42,0.04,-272.77,-272.76,-44,562,-942,24.6,6.3,-14.8,24.6,6.5,-14.5,5.73,2.40,-22.5,29.4
2013-04-29 02:04:00,0.0,1.9246,0.0009,406.87,0.37,264.5,30.5,138.04,31.73,24.66,36.42,0.04,-272.76,-272.76,-44,563,-942,24.7,6.3,-14.7,24.6,6.6,-14.3,5.73,2.40,-22.6,29.3
2013-04-29 02:05:00,0.0,1.9238,0.0010,406.67,0.42,275.2,33.4,138.04,31.72,24.66,36.42,0.04,-272.76,-272.76,-44,563,-942,24.6,6.5,-14.4,24.6,6.7,-14.1,5.73,2.40,-22.6,29.3
2013-04-29 02:06:00,0.0,1.9233,0.0009,406.81,0.44,268.4,30.4,138.05,31.72,24.66,36.42,0.04,-272.76,-272.76,-44,563,-942,24.6,6.4,-14.5,24.6,6.6,-14.1,5.73,2.39,-22.5,29.3
2013-04-29 02:07:00,0.0,1.9233,0.0008,406.81,0.47,275.3,32.3,138.04,31.72,24.66,36.41,0.04,-272.76,-272.76,-44,563,-942,24.6,6.4,-14.5,24.6,6.7,-14.1,5.73,2.39,-22.5,29.3
2013-04-29 02:08:00,0.0,1.9229,0.0010,406.83,0.44,273.0,32.9,138.04,31.71,24.66,36.42,0.04,-272.76,-272.76,-44,563,-942,24.7,6.4,-14.6,24.6,6.6,-14.2,5.73,2.39,-22.5,29.3
2013-04-29 02:09:00,0.0,1.9233,0.0011,406.85,0.33,275.2,26.6,138.05,31.70,24.66,36.41,0.04,-272.76,-272.76,-44,563,-942,24.7,6.4,-14.5,24.6,6.7,-14.1,5.73,2.39,-22.5,29.4
2013-04-29 02:10:00,0.0,1.9232,0.0009,406.81,0.37,271.6,28.2,138.05,31.70,24.66,36.41,0.04,-272.76,-272.76,-44,563,-942,24.7,6.5,-14.4,24.7,6.7,-14.1,5.73,2.39,-22.5,29.4
2013-04-29 02:11:00,0.0,1.9230,0.0009,406.68,0.46,279.3,29.5,138.05,31.69,24.66,36.42,0.04,-272.76,-272.76,-44,563,-942,24.7,6.5,-14.4,24.7,6.7,-14.0,5.73,2.39,-22.5,29.4
2013-04-29 02:12:00,0.0,1.9229,0.0008,406.82,0.41,286.0,31.2,138.05,31.69,24.66,36.42,0.04,-272.76,-272.76,-44,563,-942,24.7,6.5,-14.4,24.6,6.7,-14.0,5.73,2.40,-22.5,29.4
2013-04-29 02:13:00,0.0,1.9229,0.0010,406.84,0.42,282.6,29.8,138.05,31.68,24.66,36.41,0.04,-272.76,-272.76,-44,563,-942,24.7,6.5,-14.4,24.6,6.7,-14.0,5.73,2.40,-22.5,29.4
2013-04-29 02:14:00,0.0,1.9228,0.0007,406.76,0.45,276.7,31.7,138.05,31.67,24.66,36.42,0.04,-272.76,-272.76,-44,563,-942,24.7,6.6,-14.2,24.7,6.7,-13.9,5.73,2.40,-22.4,29.5
2013-04-29 02:15:00,0.0,1.9229,0.0008,406.77,0.45,282.8,27.2,138.05,31.67,24.67,36.42,0.04,-272.76,-272.76,-44,563,-942,24.7,6.5,-14.3,24.7,6.8,-13.9,5.73,2.41,-22.4,29.5
2013-04-29 02:16:00,0.0,1.9233,0.0009,406.63,0.42,287.5,27.7,138.05,31.66,24.66,36.42,0.04,-272.76,-272.76,-44,563,-942,24.7,6.5,-14.4,24.6,6.7,-14.0,5.73,2.41,-22.4,29.4